Regional Weather Roundup
Issued by NWS

Home | Current Version | Previous Version | Graphics & Text | Print | Product List | Glossary On
Versions: 1 2 3 4 5 6 7 8 9 10 11 12 13 14 15 16 17 18 19 20 21 22 23 24 25 26 27 28 29 30 31 32 33 34 35 36 37 38 39 40 41 42 43 44 45 46 47 48 49 50
000
ASUS43 KDMX 151306
RWRIA

WEATHER ROUNDUP FOR IOWA
NATIONAL WEATHER SERVICE DES MOINES IA
700 AM CST FRI DEC 15 2017

NOTE: "FAIR" INDICATES FEW OR NO CLOUDS BELOW 12,000 FEET WITH NO
SIGNIFICANT WEATHER AND/OR OBSTRUCTIONS TO VISIBILITY.

* - THESE STATIONS ARE NOT NWS STATIONS...THUS NOT UNDER NWS
QUALITY CONTROL.  THEY ALSO DO NOT REPORT WEATHER SUCH
AS PRECIPITATION OR FOG.

IAZ001>003-012>014-020>022-031>034-043>046-151400-
   NORTHWEST IOWA

CITY           SKY/WX    TMP DP  RH WIND       PRES   REMARKS
CARROLL *      CLOUDY    32  25  74 W12       29.99S WCI  23
CHEROKEE *     CLOUDY    32  26  79 W8        29.97S WCI  25
DENISON *      CLOUDY    32  25  74 SW9       30.02R WCI  24
LE MARS *      CLOUDY    34  27  75 SW7       29.97S WCI  28
ORANGE CITY *  CLOUDY    34  30  86 W13       29.95S WCI  25
SHELDON *      CLOUDY    30  27  86 W10       29.92F WCI  21
SIOUX CITY     CLOUDY    34  26  72 W13       29.99F WCI  25
SPENCER        CLOUDY    31  27  85 W12       29.93F WCI  22
STORM LAKE *   CLOUDY    30  25  80 W10       29.95F WCI  21
$$

IAZ055>058-069>071-079>083-090>094-151400-
   SOUTHWEST IOWA

CITY           SKY/WX    TMP DP  RH WIND       PRES   REMARKS
ATLANTIC *     CLOUDY    32  27  80 SW13      30.04S WCI  22
AUDUBON *      CLOUDY    30  27  86 SW9       30.01F WCI  22
CLARINDA *     CLOUDY    32  25  74 SW8       30.10S WCI  25
COUNCIL BLFS * CLOUDY    32  28  86 SW9       30.05S WCI  24
CRESTON *      CLOUDY    30  25  80 W10       30.05S WCI  21
HARLAN  *      CLOUDY    32  27  80 SW13      30.06S WCI  22
LAMONI         CLOUDY    30  21  69 SW12      30.04F WCI  20
RED OAK *      CLOUDY    32  27  80 SW9       30.07S WCI  24
SHENANDOAH *   CLOUDY    32  27  80 SW9       30.09F WCI  24
$$

IAZ047>049-059>061-072>074-084-151400-
   CENTRAL IOWA

CITY           SKY/WX    TMP DP  RH WIND       PRES   REMARKS
AMES           CLOUDY    28  25  88 SW9       30.00S WCI  19
ANKENY *       CLOUDY    30  23  74 SW7       30.03S WCI  23
BOONE *        CLOUDY    28  25  86 SW8       29.98S WCI  20
CHARITON *     CLOUDY    28  23  80 SW7       30.04R WCI  21
DES MOINES     CLOUDY    30  22  72 W8        30.02F WCI  22
GRINNELL*      CLOUDY    24  22  91 SW9       30.02R WCI  15
KNOXVILLE *    CLOUDY    27  23  86 SW6       30.02S WCI  20
MARSHALLTOWN   CLOUDY    26  23  88 SW10      29.98S WCI  16
NEWTON *       CLOUDY    25  23  93 SW7       30.02S WCI  17
PELLA *        CLOUDY    28  24  85 W7        30.05R WCI  20
PERRY *        CLOUDY    31  24  75 SW12      30.00F WCI  22
$$

IAZ004>006-015-016-023>025-035-036-151400-
   NORTH CENTRAL IOWA

CITY           SKY/WX    TMP DP  RH WIND       PRES   REMARKS
ALGONA *       CLOUDY    30  28  93 W12       29.93S WCI  21
CLARION *      CLOUDY    28  28 100 SW8       29.95S WCI  20
ESTHERVILLE    CLOUDY    29  26  89 W10       29.91F WCI  20
FORT DODGE *   CLOUDY    29  25  85 W12       29.96S WCI  19
MASON CITY     CLOUDY    27  23  85 W13       29.93F WCI  16
FOREST CITY *  CLOUDY    30  27  86 W6        29.92S WCI  24
WEBSTER CITY * CLOUDY    30  25  80 W12       29.95S WCI  21
IOWA FALLS *   CLOUDY    28  24  86 SW10      29.97S WCI  19
$$

IAZ007>011-017>019-026>030-037>042-050>054-066-151400-
   NORTHEAST IOWA

CITY           SKY/WX    TMP DP  RH WIND       PRES   REMARKS
CEDAR RAPIDS   CLEAR     19  16  88 SW9       29.99R WCI   8
CHARLES CITY * LGT SNOW  27  25  93 W9        29.93S WCI  17
CLINTON *      PTCLDY    22  18  85 W12       29.99R WCI  10
DECORAH *      FLURRIES  25  19  80 CALM      29.90F
DUBUQUE        CLOUDY    24  18  77 W12       29.95R WCI  13
MONTICELLO *   CLOUDY    25  19  80 W10G16    29.98R WCI  15
OELWEIN *      CLOUDY    25  23  93 W8        29.95S WCI  16
WATERLOO       CLOUDY    24  19  81 SW8       29.97S WCI  15
$$

IAZ064-065-067-068-078-151400-
   EAST CENTRAL IOWA

CITY           SKY/WX    TMP DP  RH WIND       PRES   REMARKS
DAVENPORT      CLOUDY    24  18  77 W9        30.02R WCI  14
IOWA CITY      CLEAR     22  17  81 W8        30.03R WCI  12
MT. PLEASANT * MOCLDY    26  23  88 W6        30.04S WCI  19
MUSCATINE *    PTCLDY    25  19  80 W6        30.04R WCI  18
QUAD CITIES    CLOUDY    28  19  69 W12       30.01R WCI  18
$$

IAZ062-063-075>077-085>089-095>099-151400-
   SOUTHEAST IOWA

CITY           SKY/WX    TMP DP  RH WIND       PRES   REMARKS
BURLINGTON     PTCLDY    27  23  85 W5        30.04R WCI  22
FAIRFIELD *    CLEAR     23  21  93 W6        30.03S WCI  16
FORT MADISON * CLEAR     27  23  86 W7        30.05S WCI  19
KEOKUK *       PTCLDY    27  25  93 W7        30.05S WCI  19
OSKALOOSA *    MOCLDY    21  20  96 SW6       30.04S WCI  14
OTTUMWA        PTCLDY    23  20  88 W6        30.04R WCI  16
WASHINGTON *   CLEAR     23  23 100 W7        30.04S WCI  15
$$

ABBREVIATIONS USED IN REMARKS
   TC - TEMPERATURES IN CELSIUS
  WCI - WIND CHILL INDEX
   HX - HEAT INDEX
  VSB - VISIBILITY
$$





USA.gov is the U.S. government's official web portal to all federal, state and local government web resources and services.